When you browse on this site, cookies collect data to enhance your experience and personalize the content and advertising you see.
Visit our Privacy Policy to learn more. By continuing to use the site, you agree to this use of cookies and data.

Hourly Weather Cam Ranh

Today, 25 September, Friday

Time Temperature Precipitation Wind Pressure Humidity
00:00 +28°C° 1.4 mm 4 mps 752 mmHg 88%
01:00 +27°C° 1.4 mm 4 mps 752 mmHg 89%
02:00 +27°C° 1 mm 4 mps 752 mmHg 88%
03:00 +27°C° 1 mm 3 mps 752 mmHg 88%
04:00 +27°C° 1 mm 3 mps 751 mmHg 88%
05:00 +27°C° 0.5 mm 3 mps 752 mmHg 86%
06:00 +28°C° 0.5 mm 2 mps 752 mmHg 85%
07:00 +28°C° 0.5 mm 2 mps 752 mmHg 83%
08:00 +29°C° 0 mm 2 mps 752 mmHg 76%
09:00 +31°C° 0 mm 1 mps 752 mmHg 70%
10:00 +32°C° 0 mm 1 mps 752 mmHg 63%
11:00 +32°C° 0.3 mm 1 mps 752 mmHg 64%
12:00 +32°C° 0.3 mm 1 mps 751 mmHg 65%
13:00 +32°C° 0.3 mm 1 mps 750 mmHg 66%
14:00 +32°C° 1 mm 1 mps 750 mmHg 69%
15:00 +32°C° 1 mm 1 mps 750 mmHg 72%
16:00 +31°C° 1 mm 1 mps 749 mmHg 75%
17:00 +30°C° 0.2 mm 1 mps 750 mmHg 77%
18:00 +30°C° 0.2 mm 1 mps 750 mmHg 79%
19:00 +29°C° 0.2 mm 1 mps 751 mmHg 82%
20:00 +29°C° 0.1 mm 1 mps 751 mmHg 82%
21:00 +29°C° 0.1 mm 2 mps 752 mmHg 83%
22:00 +29°C° 0.1 mm 2 mps 752 mmHg 83%
23:00 +28°C° 0.2 mm 2 mps 752 mmHg 84%

Tomorrow, 26 September, Saturday

Time Temperature Precipitation Wind Pressure Humidity
00:00 +28°C° 0.2 mm 2 mps 752 mmHg 84%
01:00 +28°C° 0.2 mm 2 mps 751 mmHg 84%
02:00 +28°C° 0.2 mm 2 mps 751 mmHg 83%
03:00 +28°C° 0.2 mm 2 mps 751 mmHg 82%
04:00 +28°C° 0.2 mm 2 mps 751 mmHg 81%
05:00 +28°C° 0 mm 2 mps 751 mmHg 80%
06:00 +28°C° 0 mm 1 mps 751 mmHg 78%
07:00 +29°C° 0 mm 1 mps 751 mmHg 77%
08:00 +30°C° 0.1 mm 1 mps 752 mmHg 73%
09:00 +31°C° 0.1 mm 1 mps 752 mmHg 69%
10:00 +32°C° 0.1 mm 1 mps 752 mmHg 65%
11:00 +32°C° 0.3 mm 2 mps 751 mmHg 67%
12:00 +32°C° 0.3 mm 2 mps 750 mmHg 69%
13:00 +32°C° 0.3 mm 2 mps 750 mmHg 71%
14:00 +33°C° 0.4 mm 3 mps 749 mmHg 72%
15:00 +31°C° 0.4 mm 3 mps 749 mmHg 73%
16:00 +31°C° 0.4 mm 3 mps 749 mmHg 75%
17:00 +30°C° 0.2 mm 2 mps 749 mmHg 77%
18:00 +30°C° 0.2 mm 2 mps 750 mmHg 79%
19:00 +29°C° 0.2 mm 1 mps 750 mmHg 81%
20:00 +29°C° 0.1 mm 1 mps 751 mmHg 82%
21:00 +28°C° 0.1 mm 1 mps 751 mmHg 82%
22:00 +28°C° 0.1 mm 1 mps 752 mmHg 82%
23:00 +28°C° 0.3 mm 1 mps 751 mmHg 84%

Day after tomorrow, 27 September, Sunday

Time Temperature Precipitation Wind Pressure Humidity
00:00 +28°C° 0.3 mm 1 mps 751 mmHg 85%
01:00 +28°C° 0.3 mm 1 mps 751 mmHg 86%
02:00 +28°C° 0.2 mm 2 mps 750 mmHg 85%
03:00 +27°C° 0.2 mm 2 mps 750 mmHg 85%
04:00 +27°C° 0.2 mm 2 mps 750 mmHg 85%
05:00 +28°C° 0.2 mm 2 mps 750 mmHg 83%
06:00 +28°C° 0.2 mm 2 mps 751 mmHg 81%
07:00 +29°C° 0.2 mm 1 mps 751 mmHg 80%
08:00 +30°C° 0.5 mm 1 mps 751 mmHg 77%
09:00 +30°C° 0.5 mm 1 mps 751 mmHg 75%
10:00 +31°C° 0.5 mm 1 mps 752 mmHg 73%
11:00 +31°C° 0.7 mm 2 mps 751 mmHg 73%
12:00 +31°C° 0.7 mm 2 mps 750 mmHg 73%
13:00 +31°C° 0.7 mm 2 mps 750 mmHg 73%
14:00 +31°C° 0.5 mm 2 mps 749 mmHg 73%
15:00 +31°C° 0.5 mm 2 mps 749 mmHg 74%
16:00 +31°C° 0.5 mm 2 mps 749 mmHg 75%
17:00 +30°C° 0.4 mm 2 mps 750 mmHg 77%
18:00 +29°C° 0.4 mm 1 mps 750 mmHg 79%
19:00 +29°C° 0.4 mm 1 mps 751 mmHg 81%
20:00 +29°C° 0.1 mm 1 mps 751 mmHg 82%
21:00 +28°C° 0.1 mm 1 mps 752 mmHg 82%
22:00 +28°C° 0.1 mm 1 mps 752 mmHg 83%
23:00 +28°C° 0 mm 1 mps 752 mmHg 84%

28 September, Monday

Time Temperature Precipitation Wind Pressure Humidity
00:00 +28°C° 0 mm 1 mps 751 mmHg 84%
01:00 +27°C° 0 mm 1 mps 751 mmHg 85%
02:00 +27°C° 0 mm 1 mps 750 mmHg 85%
03:00 +27°C° 0 mm 1 mps 750 mmHg 86%
04:00 +27°C° 0 mm 1 mps 750 mmHg 86%
05:00 +27°C° 0 mm 1 mps 750 mmHg 85%
06:00 +28°C° 0 mm 1 mps 751 mmHg 84%
07:00 +28°C° 0 mm 1 mps 751 mmHg 83%
08:00 +29°C° 0 mm 1 mps 752 mmHg 78%
09:00 +31°C° 0 mm 1 mps 752 mmHg 73%
10:00 +32°C° 0 mm 1 mps 752 mmHg 68%
11:00 +32°C° 0.1 mm 1 mps 751 mmHg 70%
12:00 +32°C° 0.1 mm 2 mps 750 mmHg 71%
13:00 +31°C° 0.1 mm 2 mps 750 mmHg 72%
14:00 +31°C° 0.2 mm 2 mps 749 mmHg 73%
15:00 +31°C° 0.2 mm 2 mps 749 mmHg 75%
16:00 +31°C° 0.2 mm 2 mps 749 mmHg 76%
17:00 +30°C° 0.1 mm 1 mps 750 mmHg 78%
18:00 +30°C° 0.1 mm 1 mps 750 mmHg 80%
19:00 +29°C° 0.1 mm 1 mps 751 mmHg 82%
20:00 +29°C° 0.2 mm 1 mps 751 mmHg 83%
21:00 +29°C° 0.2 mm 1 mps 752 mmHg 83%
22:00 +28°C° 0.2 mm 1 mps 752 mmHg 84%
23:00 +28°C° 0.1 mm 1 mps 752 mmHg 85%

29 September, Tuesday

Time Temperature Precipitation Wind Pressure Humidity
00:00 +28°C° 0.1 mm 1 mps 751 mmHg 86%
01:00 +27°C° 0.1 mm 2 mps 751 mmHg 87%
02:00 +27°C° 0.4 mm 2 mps 751 mmHg 86%
03:00 +27°C° 0.4 mm 2 mps 750 mmHg 86%
04:00 +27°C° 0.4 mm 1 mps 750 mmHg 85%
05:00 +28°C° 0.9 mm 2 mps 751 mmHg 85%
06:00 +28°C° 0.9 mm 3 mps 751 mmHg 85%
07:00 +28°C° 0.9 mm 4 mps 752 mmHg 84%
08:00 +28°C° 0.3 mm 4 mps 752 mmHg 84%
09:00 +28°C° 0.3 mm 3 mps 752 mmHg 83%
10:00 +29°C° 0.3 mm 3 mps 751 mmHg 83%
11:00 +30°C° 0 mm 3 mps 751 mmHg 77%
12:00 +31°C° 0 mm 3 mps 750 mmHg 72%
13:00 +33°C° 0 mm 3 mps 749 mmHg 67%
14:00 +33°C° 0.1 mm 3 mps 749 mmHg 70%
15:00 +32°C° 0.1 mm 4 mps 749 mmHg 74%
16:00 +32°C° 0.1 mm 5 mps 749 mmHg 78%
17:00 +30°C° 0.1 mm 5 mps 749 mmHg 81%
18:00 +29°C° 0.1 mm 5 mps 750 mmHg 85%
19:00 +28°C° 0.1 mm 5 mps 751 mmHg 88%
20:00 +28°C° 0 mm 5 mps 751 mmHg 88%
21:00 +28°C° 0 mm 5 mps 751 mmHg 88%
22:00 +28°C° 0 mm 5 mps 752 mmHg 87%
23:00 +27°C° 0 mm 5 mps 751 mmHg 87%

30 September, Wednesday

Time Temperature Precipitation Wind Pressure Humidity
00:00 +27°C° 0 mm 5 mps 751 mmHg 88%
01:00 +27°C° 0 mm 5 mps 750 mmHg 88%
02:00 +27°C° 0 mm 5 mps 750 mmHg 87%
03:00 +27°C° 0 mm 5 mps 750 mmHg 87%
04:00 +27°C° 0 mm 4 mps 750 mmHg 86%
05:00 +27°C° 0.1 mm 4 mps 750 mmHg 84%
06:00 +28°C° 0.1 mm 3 mps 751 mmHg 83%
07:00 +28°C° 0.1 mm 3 mps 751 mmHg 81%
08:00 +29°C° 0 mm 2 mps 751 mmHg 75%
09:00 +31°C° 0 mm 2 mps 751 mmHg 70%
10:00 +32°C° 0 mm 1 mps 751 mmHg 64%
11:00 +32°C° 0.1 mm 1 mps 751 mmHg 66%
12:00 +32°C° 0.1 mm 1 mps 750 mmHg 68%
13:00 +32°C° 0.1 mm 1 mps 749 mmHg 69%
14:00 +31°C° 1.4 mm 1 mps 749 mmHg 73%
15:00 +31°C° 1.4 mm 1 mps 749 mmHg 77%
16:00 +30°C° 1.4 mm 1 mps 749 mmHg 81%
17:00 +30°C° 0.4 mm 1 mps 749 mmHg 82%
18:00 +29°C° 0.4 mm 1 mps 750 mmHg 82%
19:00 +29°C° 0.4 mm 1 mps 750 mmHg 83%
20:00 +28°C° 0 mm 2 mps 751 mmHg 83%
21:00 +28°C° 0 mm 2 mps 751 mmHg 83%
22:00 +28°C° 0 mm 2 mps 751 mmHg 84%
23:00 +28°C° 0 mm 2 mps 751 mmHg 83%
Show more